Location: Silverdale
(47.6506°N, 122.6941°W)
Time: 03:55:24
(UTC+00:00)

Altair - Pass Details

Date: 12 October 2022
Orbit: 1501 x 1682 km, 47.2° (Epoch: 04 December)

Event Time Altitude Azimuth Distance (km) Brightness Sun altitude
Rises 16:51:45 0° 291° (WNW) 4,853 9.6 21.3°
Reaches altitude 10° 16:55:03 10° 285° (WNW) 3,887 9.2 21.7°
Maximum altitude 17:04:11 43° 219° (SW) 2,217 8.7 22.9°
Drops below altitude 10° 17:13:29 10° 152° (SSE) 3,937 11.2 24.0°
Sets 17:16:51 0° 146° (SE) 4,921 11.5 24.4°
